Flag for India Weather past 2 weeks in Sivaganga, Tamil Nadu, India

Now
90 °F

Passing clouds.


Feels Like: 96 °F
Forecast: 81 / 94 °F
Wind: 9 mph from Southeast

Location: Tiruchchirapalli

Current Time: Sep 21, 2014 at 8:45:01 PM

Latest Report: Sep 21, 2014 at 8:10 PM


Visibility: 4 mi

Pressure: 29.74 "Hg

Humidity: 55%

Dew point: 72 °F

Location of SivagangaLocation

Historic Weather in Sivaganga — Graph

°F

Sivaganga temperature yesterday

Maximum temperature yesterday: 100 °F (at 2:40 PM)
Minimum temperature yesterday: 81 °F (at 4:40 AM)
Average temperature yesterday: 90 °F

Past Weeks' High & Low Weather Summary

 TemperatureHumidityPressure
High102 °F (Sep 14, 2:40 PM)84% (Sep 14, 9:10 PM)29.86 "Hg (Sep 14, 9:10 PM)
Low79 °F (Sep 14, 9:10 PM)33% (Sep 16, 2:40 PM)29.59 "Hg (Sep 17, 3:10 PM)
Average89 °F53%29.75 "Hg
* Reported Sep 6 9:10 PM — Sep 21 7:40 PM, Sivaganga, Weather by CustomWeather, © 2014

Note: Actual official high and low records may vary slightly from our data, if they occured in-between our weather recording intervals... More about our weather records

Advertising

Sivaganga weather history for previous 24 hours

 ConditionsComfort  
Time TempWeatherWind HumidityBarometerVisibility
7:40 PM
Sep 21
91 °FPassing clouds.7 mph49%29.71 "Hg4 mi
7:10 PM93 °FPassing clouds.5 mph47%29.71 "Hg4 mi
6:40 PM93 °FPartly sunny.No wind47%29.68 "Hg4 mi
5:40 PM97 °FScattered clouds.5 mph39%29.68 "Hg4 mi
5:10 PM99 °FScattered clouds.6 mph37%29.65 "Hg5 mi
4:40 PM99 °FScattered clouds.5 mph37%29.65 "Hg5 mi
3:40 PM99 °FScattered clouds.7 mph37%29.65 "Hg5 mi
3:10 PM99 °FScattered clouds.8 mph37%29.65 "Hg5 mi
2:40 PM99 °FScattered clouds.9 mph37%29.68 "Hg4 mi
2:10 PM99 °FScattered clouds.8 mph37%29.68 "Hg4 mi
1:40 PM99 °FScattered clouds.10 mph37%29.71 "Hg4 mi
1:10 PM99 °FScattered clouds.12 mph37%29.71 "Hg4 mi
12:40 PM97 °FPartly sunny.10 mph39%29.74 "Hg4 mi
12:10 PM97 °FScattered clouds.9 mph39%29.74 "Hg4 mi
11:40 AM95 °FPassing clouds.10 mph41%29.77 "Hg4 mi
11:10 AM95 °FPassing clouds.10 mph41%29.77 "Hg4 mi
10:40 AM93 °FHaze.12 mph44%29.77 "Hg3 mi
10:10 AM91 °FHaze.9 mph46%29.80 "Hg3 mi
9:40 AM90 °FHaze.12 mph49%29.80 "Hg3 mi
9:10 AM88 °FHaze.12 mph52%29.80 "Hg3 mi
8:40 AM88 °FHaze.10 mph52%29.80 "Hg3 mi
8:10 AM86 °FHaze.10 mph59%29.80 "Hg3 mi
7:40 AM84 °FHaze.13 mph62%29.77 "Hg3 mi
7:10 AM82 °FHaze.13 mph66%29.77 "Hg3 mi
6:10 AM81 °FPassing clouds.12 mph70%29.74 "Hg4 mi
5:40 AM81 °FPassing clouds.10 mph70%29.74 "Hg4 mi
5:10 AM82 °FPassing clouds.9 mph66%29.74 "Hg4 mi
4:40 AM82 °FPassing clouds.12 mph66%29.71 "Hg4 mi
4:10 AM82 °FPassing clouds.9 mph66%29.71 "Hg4 mi
3:40 AM82 °FPassing clouds.12 mph66%29.71 "Hg4 mi
3:10 AM82 °FPassing clouds.10 mph66%29.71 "Hg4 mi
2:40 AM82 °FPassing clouds.10 mph66%29.71 "Hg4 mi
1:40 AM84 °FPassing clouds.9 mph62%29.74 "Hg4 mi
1:10 AM84 °FPassing clouds.9 mph62%29.74 "Hg4 mi
12:40 AM84 °FPassing clouds.9 mph62%29.77 "Hg4 mi
12:10 AM86 °FPartly cloudy.6 mph59%29.77 "Hg4 mi
11:40 PM
Sep 20
86 °FPartly cloudy.7 mph59%29.77 "Hg4 mi
11:10 PM86 °FPartly cloudy.7 mph55%29.77 "Hg4 mi
Weather by CustomWeather, © 2014

See weather overviewHow to use our weather pages